Vertical_Velocity
0 0 0 0 -0 -0 -0 -0 -0 -0 -0 -0 -0 -0 -0 -0 0 1 1 1 -0 -1 -1 -1 0 0 0 -1 -1 -1 -1 -1 -1 -1 -1 -2 -1 -1 -1 -1 -1 -1 -1 -0 -0 0 1 1 1 0 0 2 2 2 1 0 -0 -1 -1 -1 -0 -0 -0 -0 -0 0 0 0 0
0 0 0 -0 -0 -0 0 0 0 0 0 -0 -0 -0 -0 -0 0 1 1 0 -1 -1 -1 -0 -0 0 -0 -1 -1 -1 -1 -1 -1 -1 -1 -1 -1 -1 -1 -0 -0 -0 0 0 0 1 1 1 2 2 2 3 2 0 -1 -1 -1 -1 -1 -1 -1 -0 -0 0 0 0 0 -0 -1
0 0 -0 0 0 0 0 0 1 1 1 0 -0 -0 -0 -0 0 1 1 0 -1 -1 -1 -0 -0 -0 -1 -1 -1 -1 -1 -1 -1 -1 -1 -1 -1 -1 -0 0 0 0 0 1 1 1 1 2 2 2 2 1 -0 -1 -1 -2 -1 -1 -1 -1 -0 0 0 0 0 0 -0 -1 -2
0 -0 0 0 0 0 1 1 1 1 0 0 -0 -0 -0 0 0 0 0 -0 -1 -1 -1 -0 -0 -1 -1 -1 -1 -1 -1 -1 -1 -1 -1 -0 -0 0 1 1 1 1 1 0 0 0 1 1 1 0 -0 -1 -2 -2 -2 -1 -1 -1 -1 -0 0 1 1 1 0 -0 -1 -2 -2
0 0 0 0 0 0 0 1 1 0 0 0 -0 -0 0 0 0 0 -0 -0 -1 -1 -1 -0 -1 -1 -1 -1 -1 -1 -1 -1 -1 -0 -0 0 0 1 1 2 2 1 1 1 1 1 0 0 -0 -1 -2 -2 -2 -2 -1 -1 -0 0 0 0 0 1 0 0 -0 -1 -1 -2 -2
0 0 0 0 0 0 0 0 1 0 0 0 0 0 0 1 0 -0 -0 -0 -0 -0 -1 -1 -2 -1 -1 -1 -1 -1 -1 -1 -0 0 1 1 2 2 1 1 1 1 0 0 0 0 0 -0 -1 -2 -2 -1 -1 -0 0 1 1 1 1 0 0 -0 -0 -1 -1 -1 -1 -1 -1
0 0 -0 -0 -0 0 0 1 0 0 0 0 0 0 1 1 -0 -1 -1 -0 0 1 0 -1 -2 -2 -1 -1 -1 -1 -0 0 0 1 1 1 1 1 1 0 -0 -0 -1 -1 -0 0 0 0 0 0 0 0 1 1 1 2 1 1 1 0 -0 -1 -1 -1 -1 -0 0 0 0
-0 -0 -0 -0 -0 0 0 0 0 0 0 0 0 0 1 1 0 -0 -1 -0 0 1 0 -0 -1 -1 -1 -1 -1 -0 0 1 1 1 1 1 1 0 -0 -1 -1 -1 -0 0 0 1 1 1 1 2 2 2 1 1 1 1 1 1 0 0 -0 -0 -0 0 0 0 1 1 1
0 -0 -0 -0 -0 0 0 0 0 0 0 -0 0 0 1 1 0 0 -0 -0 -1 -1 -1 -1 -1 -1 -1 -1 -0 0 0 1 1 1 1 0 0 -0 -0 0 1 1 1 1 1 1 1 1 1 1 1 1 1 1 1 0 0 0 0 0 0 0 0 1 1 1 1 1 1
0 0 -0 -0 -0 0 0 0 0 0 0 0 0 1 1 1 0 0 -0 -0 -1 -1 -1 -1 -1 -1 -1 -1 -0 0 0 1 1 1 1 0 0 -0 -0 -0 0 0 0 0 0 1 1 0 0 0 0 1 1 1 0 0 0 -0 -0 0 0 0 0 1 1 1 1 1 0
0 0 0 -0 -0 -0 0 0 0 -0 -0 0 1 1 1 0 -0 -0 -1 -1 -1 -1 -2 -1 -1 -1 -0 0 1 1 2 2 1 1 0 -0 -0 -0 -1 -1 -1 -1 -1 -1 -0 0 0 0 0 -0 -0 0 0 0 0 -0 -0 -1 -1 -0 -0 0 0 0 1 1 1 0 -0
0 0 0 -0 -0 0 0 -0 -0 -1 -1 -0 1 1 1 0 0 -0 -1 -1 -1 -1 -1 -1 -1 0 1 2 2 2 1 0 -0 -1 -1 -1 -1 -1 -1 -1 -1 -1 -1 -1 -0 0 0 0 -0 -0 -0 -0 -0 -0 -0 -0 -1 -1 -1 -1 -0 0 0 1 1 1 0 -0 -1
0 0 0 0 0 0 0 -1 -1 -1 -1 0 0 0 0 -0 -0 -1 -1 -1 -1 -1 -1 -0 0 1 2 2 1 1 -0 -1 -1 -1 -1 -1 -1 -1 -1 -2 -2 -2 -1 -1 0 0 0 0 -0 -0 -0 -0 -0 -1 -0 -0 -0 -0 -0 -0 0 0 1 1 1 0 -0 -1 -1
0 0 0 0 0 0 -0 -1 -1 -1 -0 0 0 -0 -1 -1 -1 -1 -1 -1 -1 -1 -1 -0 0 1 1 1 0 -0 -1 -1 -1 -1 -1 -1 -1 -2 -2 -2 -2 -1 -1 -0 0 0 0 0 -0 -0 -1 -1 -1 -1 -0 -0 -0 -0 0 0 0 0 0 0 0 -0 -1 -1 -2
0 0 1 1 1 0 -0 -1 -0 0 0 0 -0 -1 -1 -1 -1 -1 -1 -1 -1 -1 -1 0 0 0 0 -0 -0 -0 -1 -1 -1 -1 -1 -1 -1 -1 -1 -1 -1 -1 -0 0 0 0 0 0 0 -0 -0 -1 -0 -0 0 0 0 0 0 0 0 0 -0 -0 -0 -0 -1 -1 -2
0 1 1 1 1 0 0 0 0 0 0 0 -0 -0 -0 -0 -0 -1 -1 -1 -1 -1 -0 0 0 0 0 -0 -0 -0 -0 -0 -0 -0 -0 -0 -0 -1 -1 -1 -0 -0 -0 0 0 0 0 0 0 0 0 0 0 0 0 0 0 -0 -0 -0 -0 -1 -1 -1 -1 -1 -1 -1 -1
1 1 1 0 1 1 1 1 1 0 -0 -0 0 0 0 -0 -0 -1 -1 -1 -1 -0 0 0 0 0 0 -0 -0 -0 -0 -0 -0 0 -0 -0 -0 -0 -0 -0 -0 0 0 1 1 1 1 0 0 0 0 0 0 0 0 0 -0 -0 -1 -1 -1 -1 -1 -0 -0 -0 -0 -1 -1
1 0 0 0 1 2 2 2 0 0 -0 0 0 0 -0 -0 -0 -1 -1 -0 -0 0 0 1 0 0 0 0 -0 -0 -0 -0 -0 -0 -0 -0 -0 -0 -0 -0 0 0 1 1 1 1 1 0 0 0 0 0 0 0 0 -0 -1 -1 -1 -1 -1 -0 -0 -0 -0 0 -0 -0 -1
0 0 0 1 2 2 2 1 0 -0 -0 0 0 -0 -1 -0 -1 -1 -1 -0 0 0 0 1 0 0 0 0 -0 -0 -0 0 0 -0 -0 -0 -0 -0 -0 0 1 1 2 2 2 1 1 0 0 0 0 0 0 -0 -0 -1 -1 -1 -1 -1 -0 -0 -0 -0 0 0 0 -0 -1
0 0 1 1 2 1 1 0 0 -0 -0 -0 -1 -1 -1 -1 -1 -1 -0 0 0 0 1 1 1 0 0 0 -0 -0 -0 0 0 -0 -0 -0 -0 -0 0 1 1 2 2 2 1 1 0 0 -0 -0 -0 -0 -0 -0 -1 -1 -1 -1 -1 -0 0 0 0 -0 0 0 0 -0 -1
0 0 1 1 1 0 0 0 0 0 -0 -1 -1 -1 -1 -1 -1 -0 0 0 0 1 1 1 1 0 0 0 -0 -0 -0 -0 -0 -0 -0 -0 -0 0 1 1 1 2 2 1 1 0 -0 -0 -0 -0 -0 -0 -0 -1 -1 -1 -1 -1 -1 -0 0 0 0 -0 -0 -0 -0 -0 -1
0 0 0 0 0 0 0 0 0 -0 -0 -1 -1 -1 -1 -1 -1 -0 0 0 0 0 0 0 0 0 -0 -0 -0 -0 -0 -0 -0 -0 0 0 0 1 1 1 1 1 1 1 0 -0 -1 -1 -1 -1 -0 -0 -0 -0 -0 -1 -1 -1 -1 -0 -0 -0 -0 -0 -0 -0 0 0 -0
0 0 0 -0 0 0 0 0 0 -0 -1 -1 -1 -1 -1 -1 -1 -0 0 0 0 0 0 -0 -0 -0 -1 -1 -1 -0 -0 0 0 0 0 1 1 1 1 1 1 1 1 0 -1 -1 -2 -2 -2 -1 -1 -0 0 0 0 -0 -0 -1 -1 -1 -1 -1 -1 -0 -0 0 0 0 0
0 0 0 0 0 0 0 -0 -0 -1 -1 -2 -2 -1 -1 -1 -0 -0 0 0 0 -0 -0 -1 -1 -1 -1 -1 -0 -0 0 0 0 0 0 0 1 1 1 1 1 1 1 -0 -1 -1 -2 -2 -2 -1 -1 -0 0 0 0 0 -0 -0 -1 -1 -1 -1 -1 -0 -0 0 1 1 0
0 0 0 0 0 0 0 -0 -1 -1 -1 -1 -1 -1 -1 -0 -0 -0 -0 -0 -0 -0 -1 -1 -1 -1 -1 -0 -0 0 0 0 0 0 0 0 0 1 1 1 1 1 0 -1 -1 -2 -2 -2 -2 -1 -1 -0 -0 -0 -0 -0 -0 -0 -0 -0 -1 -1 -1 -1 -0 -0 0 0 0
-0 -0 0 0 0 0 -0 -0 -1 -1 -1 -1 -1 -1 -0 -0 -0 -0 -0 -0 -1 -1 -1 -1 -1 -0 -0 0 0 0 0 0 -0 -0 -0 -0 0 0 1 1 1 1 0 -1 -1 -2 -2 -2 -2 -1 -1 -1 -1 -1 -1 -1 -0 -0 -0 -0 -0 -0 -1 -1 -1 -1 -0 -0 0
-0 -0 -0 -0 -0 -0 -0 -0 -0 -1 -1 -1 -0 -0 -0 -0 -0 -0 -0 -1 -1 -1 -1 -1 -1 -0 0 0 0 0 -0 -0 -1 -1 -1 -0 -0 0 1 1 1 1 0 -1 -1 -1 -1 -1 -1 -1 -1 -1 -1 -1 -1 -1 -1 -1 -0 0 -0 -0 -1 -1 -1 -1 -1 -1 -0
-0 -0 -0 -0 -0 -0 -0 -0 -0 -0 -0 -0 -0 -0 -0 -0 -0 -1 -1 -1 -1 -1 -1 -1 -0 0 0 1 0 0 -0 -1 -1 -1 -1 -1 -0 0 1 1 1 1 0 0 -0 -1 -1 -1 -1 -1 -1 -1 -1 -1 -1 -1 -1 -1 -0 -0 -0 -1 -1 -1 -1 -1 -1 -1 -1
-0 -0 -0 -0 -0 -0 -0 -0 -0 0 0 0 -0 -0 -0 -0 -1 -1 -1 -1 -1 -1 -1 -0 0 0 0 0 -0 -1 -1 -1 -1 -1 -1 -1 -1 -0 0 1 1 1 1 0 -0 -1 -1 -1 -1 -1 -1 -1 -1 -1 -1 -1 -1 -1 -0 -0 -0 -1 -1 -1 -1 -1 -1 -0 -1
-1 -0 -0 -0 -0 -0 -0 0 0 0 0 0 0 -0 -0 -0 -1 -1 -1 -1 -1 -1 -1 0 0 0 0 -0 -1 -1 -1 -1 -1 -1 -1 -1 -1 0 1 1 1 1 1 0 -1 -1 -1 -1 -1 -1 -1 -1 -0 -0 -0 -0 -0 -0 -0 -0 -0 -1 -1 -1 -1 -1 -1 -1 -1
-1 -1 -1 -0 -0 -0 0 0 0 0 0 0 0 0 -0 -0 -0 -1 -1 -1 -1 -1 -0 0 0 0 -0 -1 -1 -1 -1 -1 -1 -1 -1 -0 0 0 1 1 1 0 -0 -1 -1 -2 -2 -2 -1 -1 -1 -0 -0 0 0 -0 -0 -0 -0 -0 -0 -0 -0 -1 -1 -1 -1 -1 -1
-1 -1 -1 -1 -0 -0 0 0 0 0 0 0 0 0 -0 -0 -1 -1 -1 -1 -1 -0 -0 0 0 -0 -1 -1 -1 -2 -2 -1 -1 -1 -1 0 0 0 0 0 -0 -1 -1 -1 -2 -2 -2 -2 -1 -1 -0 -0 0 0 0 0 -0 -0 -1 -1 -1 -0 -0 -1 -1 -2 -2 -2 -2
-1 -1 -1 -1 -0 -0 0 0 0 0 0 0 0 0 -0 -0 -1 -1 -1 -1 -0 -0 0 0 -0 -0 -1 -1 -2 -2 -2 -1 -1 -1 -0 -0 0 -0 -0 -1 -1 -1 -1 -1 -1 -1 -1 -1 -1 -0 -0 -0 0 0 0 0 0 -0 -1 -1 -1 -0 -1 -1 -2 -2 -2 -2 -2
-1 -1 -1 -1 -0 0 0 0 0 1 0 0 0 0 -0 -0 -0 -0 -0 -0 -0 -0 0 -0 -0 -1 -1 -2 -2 -2 -2 -2 -1 -1 -0 -0 -0 -1 -1 -1 -1 -1 -1 -1 -1 -1 -1 -0 -0 -0 0 0 0 1 1 1 0 -0 -1 -1 -1 -1 -1 -1 -2 -2 -2 -2 -2
-1 -1 -1 -1 -0 0 0 0 0 0 0 0 0 0 -0 0 -0 -0 -0 -0 -0 -0 -0 -0 -1 -1 -2 -2 -2 -2 -2 -2 -1 -1 -0 -0 -0 -1 -1 -1 -1 -1 -1 -1 -0 -0 -0 0 0 0 0 0 0 1 1 1 1 0 -0 -1 -1 -1 -1 -1 -2 -2 -2 -2 -2
-1 -1 -1 -0 0 0 0 0 1 1 1 1 0 0 0 -0 -0 -0 -0 -0 0 -0 -0 -1 -1 -1 -2 -2 -2 -2 -2 -1 -1 -1 -0 -0 -1 -1 -1 -1 -1 -1 -1 -0 -0 0 0 0 0 0 0 0 1 1 1 1 1 0 0 -0 -0 -0 -0 -1 -2 -2 -3 -2 -2
-1 -1 -0 0 1 1 1 1 1 1 1 1 1 0 0 0 0 0 0 0 0 -0 -1 -1 -1 -1 -2 -2 -2 -2 -2 -1 -1 -0 -0 -1 -1 -1 -1 -1 -1 -1 -0 -0 0 0 1 1 1 1 1 0 0 1 1 1 1 0 0 0 0 -0 -0 -0 -1 -2 -3 -3 -2
-1 -0 0 0 1 1 1 1 1 1 1 1 1 0 0 0 0 1 0 0 0 -0 -1 -1 -1 -1 -2 -2 -2 -1 -1 -0 0 -0 -0 -1 -1 -1 -1 -1 -1 -1 -0 0 0 1 1 1 1 1 1 1 0 0 0 0 0 0 0 0 0 -0 -0 -0 -1 -2 -2 -3 -2
-0 -0 0 1 1 1 1 1 1 1 1 1 1 1 1 1 1 1 1 0 0 -0 -1 -1 -1 -1 -1 -1 -1 -1 -0 0 0 -0 -1 -1 -1 -1 -1 -1 -1 -1 -0 0 0 0 1 1 1 1 1 1 0 0 0 -0 -0 -0 -0 -0 -0 -0 -1 -1 -1 -1 -2 -2 -2
0 0 0 1 1 1 1 1 1 1 1 1 1 1 1 1 1 1 1 0 0 0 -0 -0 -1 -1 -1 -1 -1 -0 -0 0 0 -0 -1 -1 -1 -1 -1 -1 -1 -1 -0 0 0 0 0 1 1 1 1 1 0 0 0 -0 -0 -1 -1 -0 -0 -0 -1 -1 -1 -1 -1 -2 -2
0 0 1 1 1 1 1 1 1 1 1 1 1 1 1 1 1 1 1 1 0 0 0 -0 -0 -1 -1 -1 -1 -0 -0 0 -0 -1 -1 -1 -1 -1 -1 -1 -1 -1 -0 0 0 0 0 0 1 1 1 1 1 0 0 -0 -1 -1 -1 -1 -1 -1 -1 -1 -1 -1 -1 -1 -2
Height
3124 3124 3125 3125 3125 3126 3126 3126 3127 3127 3127 3127 3128 3128 3128 3128 3128 3128 3128 3128 3127 3127 3127 3127 3127 3127 3126 3126 3126 3125 3125 3125 3124 3124 3124 3124 3124 3124 3123 3123 3123 3123 3123 3123 3122 3122 3121 3121 3121 3121 3120 3119 3119 3118 3117 3116 3115 3114 3113 3112 3110 3109 3108 3107 3106 3104 3104 3102 3101
3123 3124 3124 3124 3124 3125 3125 3125 3126 3126 3126 3126 3127 3127 3127 3127 3127 3127 3127 3126 3126 3126 3126 3126 3126 3125 3125 3125 3125 3124 3124 3124 3124 3123 3123 3123 3123 3123 3123 3123 3122 3122 3122 3122 3122 3121 3121 3121 3120 3120 3119 3119 3118 3117 3116 3114 3114 3112 3111 3110 3109 3108 3107 3106 3104 3104 3102 3101 3099
3122 3122 3123 3123 3123 3124 3124 3124 3124 3125 3125 3125 3125 3125 3126 3126 3126 3126 3126 3125 3125 3125 3125 3125 3125 3124 3124 3124 3124 3124 3123 3123 3123 3123 3123 3122 3122 3122 3122 3122 3122 3122 3122 3121 3121 3121 3120 3120 3119 3119 3118 3118 3117 3115 3114 3113 3112 3111 3110 3109 3108 3107 3106 3105 3104 3102 3101 3099 3098
3121 3121 3121 3122 3122 3122 3123 3123 3123 3124 3124 3124 3124 3124 3124 3124 3124 3124 3124 3124 3124 3124 3124 3124 3124 3124 3123 3123 3123 3123 3123 3122 3122 3122 3122 3122 3122 3122 3122 3122 3122 3121 3121 3121 3120 3120 3119 3119 3118 3118 3117 3116 3115 3114 3113 3112 3111 3110 3109 3108 3107 3106 3104 3103 3102 3100 3099 3098 3096
3120 3120 3120 3121 3121 3121 3122 3122 3122 3122 3123 3123 3123 3123 3123 3124 3124 3123 3123 3123 3123 3123 3123 3123 3123 3122 3122 3122 3122 3122 3122 3122 3121 3121 3121 3122 3122 3122 3122 3122 3121 3121 3121 3120 3120 3119 3119 3118 3117 3116 3116 3115 3114 3113 3112 3111 3110 3109 3108 3107 3105 3104 3103 3102 3100 3099 3098 3096 3095
3119 3119 3119 3119 3119 3120 3120 3121 3121 3121 3121 3121 3122 3122 3122 3122 3122 3122 3122 3122 3122 3122 3122 3122 3122 3122 3121 3121 3121 3121 3121 3121 3121 3121 3121 3121 3121 3121 3121 3121 3121 3120 3120 3119 3119 3118 3118 3117 3116 3115 3114 3114 3113 3112 3111 3110 3109 3108 3107 3105 3104 3103 3101 3100 3099 3098 3096 3095 3094
3117 3117 3118 3118 3118 3119 3119 3119 3119 3120 3120 3120 3120 3121 3121 3121 3121 3121 3121 3121 3121 3121 3121 3121 3121 3121 3121 3121 3121 3121 3121 3121 3121 3121 3121 3121 3121 3121 3120 3120 3120 3119 3119 3119 3118 3117 3117 3116 3115 3114 3114 3113 3112 3111 3110 3109 3108 3107 3105 3104 3103 3101 3100 3099 3098 3097 3095 3094 3093
3116 3116 3116 3117 3117 3117 3118 3118 3118 3119 3119 3119 3119 3119 3120 3120 3120 3120 3120 3120 3120 3120 3120 3120 3120 3120 3120 3120 3120 3120 3120 3121 3121 3121 3120 3120 3120 3120 3119 3119 3119 3119 3118 3118 3117 3117 3116 3115 3114 3114 3113 3112 3111 3110 3109 3107 3106 3105 3104 3103 3101 3100 3099 3098 3097 3095 3094 3093 3092
3114 3115 3115 3115 3116 3116 3116 3117 3117 3117 3117 3118 3118 3119 3119 3119 3119 3119 3119 3119 3119 3119 3119 3119 3119 3119 3119 3119 3120 3120 3120 3120 3120 3120 3120 3119 3119 3119 3119 3119 3118 3118 3117 3117 3116 3116 3115 3114 3114 3113 3112 3111 3109 3108 3107 3106 3105 3104 3103 3101 3100 3099 3098 3097 3095 3094 3093 3092 3091
3113 3114 3114 3114 3114 3115 3115 3115 3116 3116 3116 3117 3117 3118 3118 3118 3118 3118 3118 3118 3118 3118 3119 3119 3119 3119 3119 3119 3119 3119 3119 3119 3119 3119 3119 3119 3119 3119 3118 3118 3118 3117 3116 3116 3115 3114 3114 3113 3112 3111 3110 3109 3108 3107 3106 3104 3104 3102 3101 3100 3099 3098 3097 3095 3094 3093 3092 3090 3089
3112 3112 3113 3113 3113 3114 3114 3114 3114 3115 3115 3116 3116 3117 3117 3117 3117 3117 3117 3117 3117 3117 3118 3118 3118 3118 3118 3119 3119 3119 3119 3119 3119 3119 3119 3118 3118 3118 3117 3117 3116 3116 3115 3114 3114 3113 3112 3112 3111 3110 3109 3108 3106 3105 3104 3103 3102 3101 3100 3099 3098 3096 3095 3094 3093 3092 3090 3089 3087
3111 3111 3112 3112 3112 3112 3113 3113 3113 3114 3114 3115 3115 3116 3116 3116 3116 3116 3116 3116 3116 3116 3117 3117 3117 3117 3118 3118 3118 3118 3118 3118 3118 3118 3118 3118 3117 3117 3116 3116 3115 3115 3114 3114 3113 3112 3111 3110 3109 3108 3107 3106 3105 3104 3103 3102 3101 3100 3099 3098 3096 3095 3094 3093 3092 3090 3089 3087 3086
3110 3110 3110 3111 3111 3111 3112 3112 3112 3113 3113 3114 3114 3114 3115 3115 3115 3115 3115 3115 3115 3116 3116 3116 3117 3117 3117 3118 3118 3117 3117 3117 3117 3117 3117 3116 3116 3116 3115 3115 3114 3114 3113 3112 3111 3111 3110 3109 3108 3107 3106 3105 3104 3103 3102 3101 3100 3099 3098 3096 3095 3094 3093 3091 3090 3089 3087 3086 3084
3109 3109 3109 3110 3110 3110 3110 3111 3111 3112 3112 3113 3113 3113 3114 3114 3114 3114 3114 3114 3115 3115 3115 3116 3116 3117 3117 3117 3117 3116 3116 3116 3116 3116 3116 3115 3115 3114 3114 3114 3113 3112 3111 3111 3110 3109 3109 3108 3107 3106 3105 3104 3103 3102 3101 3100 3099 3098 3096 3095 3094 3093 3091 3090 3089 3087 3086 3084 3083
3108 3108 3109 3109 3109 3109 3109 3110 3110 3111 3111 3112 3112 3112 3113 3113 3113 3113 3114 3114 3114 3115 3115 3115 3116 3116 3116 3116 3116 3115 3115 3115 3115 3115 3115 3114 3114 3114 3113 3112 3112 3111 3110 3109 3109 3108 3107 3106 3106 3105 3104 3103 3102 3101 3100 3099 3098 3096 3095 3094 3093 3091 3090 3089 3087 3086 3084 3083 3081
3107 3107 3108 3108 3108 3109 3109 3109 3109 3110 3110 3111 3111 3111 3112 3112 3112 3113 3113 3113 3114 3114 3114 3115 3115 3115 3115 3115 3115 3115 3115 3115 3114 3114 3114 3114 3113 3113 3112 3111 3111 3110 3109 3109 3108 3107 3106 3105 3104 3104 3103 3102 3101 3100 3099 3098 3096 3095 3094 3092 3091 3090 3088 3087 3086 3084 3083 3082 3080
3106 3106 3107 3107 3108 3108 3108 3109 3109 3109 3109 3110 3110 3111 3111 3111 3112 3112 3112 3113 3113 3114 3114 3114 3114 3114 3114 3114 3114 3114 3114 3114 3114 3114 3113 3113 3112 3112 3111 3110 3109 3109 3108 3108 3107 3106 3105 3104 3104 3103 3102 3101 3100 3099 3098 3096 3095 3094 3092 3091 3090 3088 3087 3086 3084 3083 3082 3080 3079
3105 3105 3106 3106 3107 3107 3108 3108 3108 3108 3109 3109 3109 3110 3110 3111 3111 3112 3112 3112 3113 3113 3113 3113 3114 3114 3114 3114 3114 3113 3113 3113 3113 3113 3112 3112 3111 3110 3110 3109 3109 3108 3107 3107 3106 3105 3104 3103 3103 3102 3101 3100 3099 3098 3096 3095 3094 3092 3091 3090 3088 3087 3086 3084 3083 3082 3081 3079 3078
3104 3105 3105 3105 3106 3106 3107 3107 3107 3108 3108 3108 3109 3109 3109 3110 3111 3111 3111 3112 3112 3112 3113 3113 3113 3113 3113 3113 3113 3113 3113 3112 3112 3112 3111 3111 3110 3109 3109 3108 3108 3107 3106 3106 3105 3104 3103 3102 3101 3100 3099 3099 3098 3096 3095 3094 3092 3091 3090 3089 3087 3086 3085 3084 3082 3081 3080 3078 3076
3103 3104 3104 3105 3105 3105 3106 3106 3106 3107 3107 3108 3108 3108 3109 3109 3110 3110 3111 3111 3112 3112 3112 3112 3112 3112 3112 3112 3112 3112 3112 3112 3111 3111 3110 3110 3109 3109 3108 3108 3107 3106 3105 3105 3104 3103 3102 3101 3100 3099 3099 3098 3096 3095 3094 3093 3091 3090 3089 3087 3086 3085 3084 3082 3081 3080 3079 3077 3075
3102 3103 3104 3104 3104 3104 3105 3105 3106 3106 3106 3107 3107 3108 3108 3109 3109 3110 3110 3111 3111 3111 3111 3112 3112 3112 3112 3112 3112 3111 3111 3111 3110 3110 3109 3109 3108 3108 3107 3107 3106 3105 3104 3104 3103 3102 3101 3100 3099 3098 3097 3096 3095 3094 3093 3091 3090 3089 3088 3086 3085 3084 3082 3081 3080 3079 3077 3075 3074
3101 3102 3103 3103 3103 3104 3104 3105 3105 3105 3106 3106 3107 3107 3108 3109 3109 3109 3110 3110 3110 3111 3111 3111 3111 3111 3111 3111 3111 3111 3110 3110 3109 3109 3109 3108 3108 3107 3106 3106 3105 3104 3104 3103 3102 3101 3100 3099 3098 3097 3096 3095 3094 3093 3092 3090 3089 3088 3086 3085 3084 3083 3081 3080 3079 3078 3076 3074 3073
3100 3101 3101 3102 3103 3103 3104 3104 3104 3105 3105 3105 3106 3107 3107 3108 3108 3109 3109 3109 3110 3110 3110 3110 3110 3110 3110 3110 3110 3110 3109 3109 3109 3108 3108 3107 3107 3106 3105 3105 3104 3103 3102 3102 3101 3100 3099 3098 3097 3096 3095 3094 3093 3092 3090 3089 3088 3087 3085 3084 3083 3082 3080 3079 3078 3076 3075 3073 3072
3099 3100 3100 3101 3102 3102 3103 3103 3104 3104 3104 3105 3105 3106 3107 3107 3108 3108 3109 3109 3109 3109 3109 3109 3109 3109 3109 3109 3109 3109 3109 3108 3108 3107 3107 3106 3106 3105 3104 3104 3103 3102 3101 3100 3099 3099 3098 3097 3096 3095 3094 3093 3092 3091 3089 3088 3087 3085 3084 3083 3082 3080 3079 3078 3077 3075 3074 3072 3070
3099 3099 3100 3100 3101 3101 3102 3102 3103 3103 3104 3104 3105 3105 3106 3107 3107 3108 3108 3108 3109 3109 3109 3109 3109 3109 3109 3109 3108 3108 3108 3107 3107 3106 3106 3105 3104 3104 3103 3103 3102 3101 3100 3099 3099 3098 3097 3096 3095 3094 3093 3092 3091 3089 3088 3087 3086 3084 3083 3082 3081 3079 3078 3077 3076 3074 3073 3071 3069
3098 3098 3099 3099 3100 3101 3101 3102 3102 3103 3103 3104 3104 3105 3106 3106 3107 3107 3107 3108 3108 3108 3108 3108 3108 3108 3108 3108 3108 3107 3107 3106 3106 3105 3105 3104 3104 3103 3102 3102 3101 3100 3099 3099 3098 3097 3096 3095 3094 3093 3092 3090 3089 3088 3087 3086 3084 3083 3082 3081 3080 3079 3077 3076 3074 3073 3071 3070 3068
3097 3097 3098 3099 3099 3100 3100 3101 3101 3102 3103 3103 3104 3104 3105 3106 3106 3106 3107 3107 3107 3107 3107 3107 3107 3107 3107 3107 3107 3106 3106 3105 3105 3104 3104 3103 3103 3102 3102 3101 3100 3099 3099 3098 3097 3096 3095 3094 3093 3092 3090 3089 3088 3087 3086 3085 3084 3082 3081 3080 3079 3078 3076 3075 3073 3072 3070 3069 3067
3096 3096 3097 3098 3098 3099 3099 3100 3101 3101 3102 3103 3103 3104 3104 3105 3105 3106 3106 3106 3106 3107 3107 3107 3107 3107 3106 3106 3106 3105 3105 3104 3104 3103 3103 3102 3102 3101 3100 3100 3099 3099 3098 3097 3096 3095 3094 3093 3092 3090 3089 3088 3087 3086 3085 3084 3083 3081 3080 3079 3078 3076 3075 3074 3072 3070 3069 3067 3065
3095 3095 3096 3097 3098 3098 3099 3099 3100 3101 3101 3102 3103 3103 3104 3104 3104 3105 3105 3105 3106 3106 3106 3106 3106 3106 3106 3105 3105 3104 3104 3103 3103 3102 3102 3101 3101 3100 3099 3099 3098 3098 3097 3096 3095 3094 3093 3092 3090 3089 3088 3087 3086 3085 3084 3083 3082 3080 3079 3078 3077 3075 3074 3073 3071 3069 3068 3066 3064
3094 3094 3095 3096 3097 3098 3098 3099 3099 3100 3101 3102 3102 3103 3103 3104 3104 3104 3104 3104 3105 3105 3105 3105 3105 3105 3105 3104 3104 3103 3103 3102 3102 3101 3101 3100 3099 3099 3099 3098 3097 3097 3096 3095 3094 3093 3091 3090 3089 3088 3087 3086 3085 3084 3083 3082 3081 3079 3078 3077 3076 3074 3073 3072 3070 3068 3067 3065 3063
3093 3094 3094 3095 3096 3097 3098 3098 3099 3100 3100 3101 3102 3102 3103 3103 3103 3104 3104 3104 3104 3104 3104 3104 3104 3104 3104 3103 3103 3102 3102 3101 3101 3100 3099 3099 3099 3098 3098 3097 3096 3095 3094 3094 3092 3091 3090 3089 3088 3087 3086 3085 3084 3083 3082 3081 3080 3079 3077 3076 3075 3074 3072 3070 3069 3067 3065 3064 3062
3092 3093 3094 3094 3095 3096 3097 3098 3098 3099 3100 3100 3101 3101 3102 3102 3103 3103 3103 3103 3104 3104 3104 3104 3103 3103 3103 3102 3102 3101 3101 3100 3099 3099 3099 3098 3098 3097 3097 3096 3095 3094 3093 3092 3091 3090 3089 3088 3087 3086 3085 3084 3083 3082 3081 3080 3079 3078 3076 3075 3074 3073 3071 3069 3068 3066 3064 3062 3060
3091 3092 3093 3094 3094 3095 3096 3097 3098 3099 3099 3100 3100 3101 3101 3102 3102 3102 3102 3103 3103 3103 3103 3103 3102 3102 3102 3101 3100 3100 3099 3099 3099 3098 3098 3097 3097 3096 3095 3095 3094 3093 3092 3091 3090 3089 3088 3087 3086 3085 3084 3084 3082 3081 3080 3079 3078 3077 3075 3074 3073 3072 3070 3068 3066 3065 3063 3061 3059
3090 3091 3092 3093 3094 3094 3095 3096 3097 3098 3099 3099 3100 3100 3100 3101 3101 3101 3102 3102 3102 3102 3102 3102 3101 3101 3101 3100 3099 3099 3099 3098 3098 3097 3097 3096 3096 3095 3094 3094 3093 3092 3091 3090 3089 3088 3087 3086 3085 3084 3084 3083 3082 3081 3079 3079 3077 3076 3075 3074 3072 3071 3069 3067 3065 3064 3062 3060 3058
3089 3090 3091 3092 3093 3094 3095 3095 3096 3097 3098 3099 3099 3099 3100 3100 3100 3101 3101 3101 3101 3101 3101 3101 3101 3100 3100 3099 3099 3098 3098 3097 3097 3096 3096 3095 3095 3094 3093 3093 3092 3091 3090 3089 3088 3087 3087 3086 3085 3084 3083 3082 3081 3080 3079 3078 3077 3075 3074 3073 3071 3070 3068 3066 3064 3063 3061 3059 3057
3089 3089 3090 3091 3092 3093 3094 3095 3096 3096 3097 3098 3098 3099 3099 3099 3100 3100 3100 3100 3100 3100 3100 3100 3099 3099 3099 3098 3098 3097 3097 3096 3096 3095 3095 3094 3094 3093 3092 3092 3091 3090 3089 3088 3087 3087 3086 3085 3084 3083 3082 3081 3080 3079 3078 3077 3076 3074 3073 3072 3070 3069 3067 3065 3064 3062 3060 3058 3056
3088 3089 3090 3090 3091 3092 3093 3094 3095 3096 3096 3097 3098 3098 3098 3099 3099 3099 3099 3100 3099 3099 3099 3099 3098 3098 3097 3097 3097 3096 3096 3095 3095 3095 3094 3094 3093 3092 3091 3090 3090 3089 3088 3087 3086 3086 3085 3084 3083 3082 3081 3080 3079 3078 3077 3076 3075 3074 3072 3071 3069 3068 3066 3064 3063 3061 3059 3057 3055
3087 3088 3089 3090 3090 3091 3092 3093 3094 3095 3095 3096 3097 3097 3098 3098 3098 3099 3099 3099 3099 3098 3098 3098 3097 3097 3097 3096 3096 3095 3095 3095 3094 3094 3093 3093 3092 3091 3090 3089 3089 3088 3087 3086 3085 3084 3084 3083 3082 3081 3080 3079 3078 3077 3076 3075 3074 3073 3071 3070 3069 3067 3065 3064 3062 3060 3058 3056 3054
3086 3087 3088 3089 3089 3090 3091 3092 3093 3094 3094 3095 3096 3096 3097 3097 3098 3098 3098 3098 3098 3097 3097 3097 3096 3096 3096 3095 3095 3095 3094 3094 3094 3093 3092 3092 3091 3090 3089 3089 3088 3087 3086 3085 3084 3084 3083 3082 3081 3080 3079 3078 3077 3076 3075 3074 3073 3071 3070 3069 3067 3066 3064 3062 3061 3059 3057 3055 3053
3085 3086 3087 3088 3089 3089 3090 3091 3092 3093 3094 3094 3095 3095 3096 3096 3097 3097 3097 3097 3097 3096 3096 3096 3095 3095 3095 3095 3094 3094 3094 3093 3093 3092 3091 3091 3090 3089 3089 3088 3087 3086 3085 3084 3083 3082 3082 3081 3080 3079 3078 3077 3076 3075 3074 3073 3072 3070 3069 3068 3066 3064 3063 3061 3059 3058 3056 3054 3052
3084 3085 3086 3087 3088 3089 3089 3090 3091 3092 3093 3093 3094 3094 3095 3095 3096 3096 3096 3096 3096 3095 3095 3095 3094 3094 3094 3094 3094 3093 3093 3092 3092 3091 3090 3089 3089 3088 3087 3087 3086 3085 3084 3083 3082 3081 3080 3079 3079 3078 3077 3076 3075 3074 3073 3072 3070 3069 3068 3066 3065 3064 3062 3060 3059 3057 3055 3053 3051